CEB741 OERK-RPLL

Flight info

Callsign CEB741
Flight time N/A
Altitude 33000
Route RAPMA DCT DEGNO DCT KATIT DCT MIDGU M440 TULBU G652 SODEB G216 DERTO G216 LAKIV N894 TELEM A791 CEA B465 DAKID/N0484F370 B465 CTG A599 LINSO/K0898S1130 A599 APUPA/K0878S1190 A599 POU B330 TAMOT/N0475F390 B330 BIGEX A461 AVMUP W16 TADEL TADEL7R
Aircraft A339/H-SADE1E2E3GHIJ3J5M1P2RWXY/LB2D1

Departure

Time N/A
Airport King Khalid International Airport (OERK)

Arrival

Time 2026-05-04 01:18
Airport Ninoy Aquino International Airport (RPLL)
Time Latitude Longitude Altitude Speed Heading
2026-05-03 20:15 23.06151 82.29501 36811 ft 520 kts 94°
2026-05-03 20:15 23.05827 82.37292 36815 ft 520 kts 94°
2026-05-03 20:16 23.05430 82.46427 36815 ft 520 kts 94°
2026-05-03 20:16 23.05141 82.52929 36811 ft 519 kts 95°
2026-05-03 20:17 23.04787 82.60757 36821 ft 520 kts 94°
2026-05-03 20:17 23.04370 82.69872 36813 ft 520 kts 95°
2026-05-03 20:18 23.04070 82.76376 36819 ft 519 kts 95°
2026-05-03 20:18 23.03645 82.85497 36832 ft 519 kts 95°
2026-05-03 20:19 23.03276 82.93304 36838 ft 518 kts 95°
2026-05-03 20:19 23.02969 82.99761 36836 ft 518 kts 95°
2026-05-03 20:20 23.02531 83.08867 36843 ft 518 kts 95°
2026-05-03 20:20 23.02155 83.16600 36831 ft 517 kts 95°
2026-05-03 20:21 23.01835 83.23088 36843 ft 518 kts 95°
2026-05-03 20:21 23.01448 83.30873 36850 ft 519 kts 94°
2026-05-03 20:22 23.01056 83.38704 36865 ft 519 kts 94°
2026-05-03 20:22 23.00664 83.46485 36880 ft 519 kts 94°
2026-05-03 20:23 23.00265 83.54264 36885 ft 519 kts 94°
2026-05-03 20:23 22.99862 83.62098 36893 ft 520 kts 94°
2026-05-03 20:24 22.99389 83.71212 36907 ft 519 kts 95°
2026-05-03 20:24 22.98980 83.78974 36923 ft 519 kts 94°
2026-05-03 20:25 22.98563 83.86799 36928 ft 519 kts 94°
2026-05-03 20:25 22.98144 83.94598 36926 ft 519 kts 94°
2026-05-03 20:26 22.97792 84.01106 36927 ft 519 kts 94°
2026-05-03 20:26 22.97294 84.10199 36918 ft 518 kts 94°
2026-05-03 20:27 22.96816 84.17957 36919 ft 518 kts 95°
2026-05-03 20:27 22.96246 84.25708 36921 ft 519 kts 95°
2026-05-03 20:28 22.95668 84.33534 36915 ft 519 kts 95°
2026-05-03 20:28 22.95192 84.40001 36909 ft 520 kts 95°
2026-05-03 20:29 22.94620 84.47776 36898 ft 520 kts 95°
2026-05-03 20:29 22.93945 84.56887 36890 ft 521 kts 95°
2026-05-03 20:30 22.93457 84.63425 36881 ft 520 kts 95°
2026-05-03 20:30 22.92779 84.72485 36878 ft 520 kts 95°
2026-05-03 20:31 22.92190 84.80276 36869 ft 520 kts 95°
2026-05-03 20:31 22.91597 84.88083 36865 ft 520 kts 95°
2026-05-03 20:32 22.91001 84.95866 36860 ft 520 kts 95°
2026-05-03 20:32 22.90400 85.03664 36853 ft 520 kts 95°
2026-05-03 20:33 22.89898 85.10120 36846 ft 520 kts 95°
2026-05-03 20:33 22.89195 85.19209 36849 ft 520 kts 95°
2026-05-03 20:34 22.88594 85.27039 36832 ft 520 kts 95°
2026-05-03 20:34 22.87992 85.34798 36833 ft 521 kts 95°
2026-05-03 20:35 22.87482 85.41325 36826 ft 520 kts 95°
2026-05-03 20:35 22.86870 85.49097 36822 ft 520 kts 95°
2026-05-03 20:36 22.86255 85.56863 36818 ft 520 kts 95°
2026-05-03 20:36 22.85634 85.64661 36804 ft 520 kts 95°
2026-05-03 20:37 22.85008 85.72465 36792 ft 520 kts 95°
2026-05-03 20:37 22.84381 85.80218 36789 ft 520 kts 95°
2026-05-03 20:38 22.83749 85.88007 36785 ft 519 kts 95°
2026-05-03 20:38 22.83009 85.97057 36780 ft 518 kts 95°
2026-05-03 20:39 22.82371 86.04819 36784 ft 518 kts 95°
2026-05-03 20:39 22.81836 86.11269 36784 ft 519 kts 95°
2026-05-03 20:40 22.81205 86.19023 36786 ft 519 kts 94°
2026-05-03 20:40 22.80779 86.26834 36789 ft 518 kts 93°
2026-05-03 20:41 22.80325 86.35914 36791 ft 519 kts 93°
2026-05-03 20:41 22.79984 86.42387 36794 ft 518 kts 93°
2026-05-03 20:42 22.79491 86.51472 36803 ft 518 kts 93°
2026-05-03 20:42 22.79135 86.57923 36804 ft 518 kts 93°
2026-05-03 20:43 22.78702 86.65682 36805 ft 517 kts 94°
2026-05-03 20:43 22.78268 86.73415 36806 ft 516 kts 94°
2026-05-03 20:44 22.77830 86.81123 36798 ft 516 kts 94°
2026-05-03 20:44 22.77312 86.90157 36792 ft 515 kts 94°
2026-05-03 20:45 22.76941 86.96579 36784 ft 516 kts 94°
2026-05-03 20:45 22.76488 87.04349 36782 ft 516 kts 94°
2026-05-03 20:46 22.75959 87.13377 36779 ft 516 kts 94°
2026-05-03 20:46 22.75504 87.21065 36779 ft 516 kts 94°
2026-05-03 20:47 22.75039 87.28851 36777 ft 516 kts 94°
2026-05-03 20:47 22.74653 87.35272 36776 ft 516 kts 94°
2026-05-03 20:48 22.74184 87.42989 36770 ft 516 kts 94°
2026-05-03 20:48 22.73632 87.52017 36766 ft 515 kts 94°
2026-05-03 20:49 22.73156 87.59740 36763 ft 515 kts 94°
2026-05-03 20:49 22.72757 87.66158 36760 ft 515 kts 94°
2026-05-03 20:50 22.72273 87.73902 36756 ft 516 kts 94°
2026-05-03 20:50 22.71785 87.81638 36755 ft 516 kts 94°
2026-05-03 20:51 22.71297 87.89329 36755 ft 516 kts 94°
2026-05-03 20:51 22.70719 87.98337 36755 ft 516 kts 94°
2026-05-03 20:52 22.70218 88.06091 36759 ft 516 kts 94°
2026-05-03 20:52 22.69715 88.13801 36763 ft 516 kts 94°
2026-05-03 20:53 22.69292 88.20265 36766 ft 516 kts 94°
2026-05-03 20:53 22.68784 88.27958 36778 ft 515 kts 94°
2026-05-03 20:54 22.68269 88.35686 36790 ft 515 kts 94°
2026-05-03 20:54 22.67255 88.47234 36797 ft 515 kts 99°
2026-05-03 20:55 22.66016 88.54826 36798 ft 515 kts 100°
2026-05-03 20:55 22.64736 88.62423 36800 ft 515 kts 100°
2026-05-03 20:56 22.63241 88.71338 36796 ft 515 kts 101°
2026-05-03 20:56 22.62187 88.77632 36797 ft 515 kts 101°
2026-05-03 20:57 22.60695 88.86507 36795 ft 514 kts 101°
2026-05-03 20:57 22.59640 88.92802 36796 ft 513 kts 99°
2026-05-03 20:58 22.58703 89.00484 36797 ft 513 kts 97°
2026-05-03 20:58 22.57878 89.08099 36796 ft 513 kts 96°
2026-05-03 20:59 22.56906 89.16997 36796 ft 513 kts 96°
2026-05-03 20:59 22.56200 89.23397 36796 ft 514 kts 96°
2026-05-03 21:00 22.55492 89.29776 36796 ft 514 kts 96°
2026-05-03 21:00 22.54496 89.38705 36795 ft 515 kts 96°
2026-05-03 21:01 22.53635 89.46396 36796 ft 514 kts 97°
2026-05-03 21:01 22.52627 89.55333 36794 ft 514 kts 97°
2026-05-03 21:02 22.51907 89.61689 36793 ft 514 kts 96°
2026-05-03 21:02 22.50895 89.70602 36796 ft 514 kts 97°
2026-05-03 21:03 22.50163 89.77023 36803 ft 514 kts 97°
2026-05-03 21:03 22.49282 89.84701 36811 ft 515 kts 97°
2026-05-03 21:04 22.48399 89.92378 36813 ft 515 kts 97°
2026-05-03 21:04 22.47517 90.00009 36814 ft 515 kts 97°
2026-05-03 21:05 22.46629 90.07669 36819 ft 515 kts 97°
2026-05-03 21:05 22.45732 90.15364 36819 ft 515 kts 97°
2026-05-03 21:06 22.44841 90.22984 36819 ft 515 kts 97°
2026-05-03 21:06 22.43787 90.31943 36816 ft 516 kts 97°
2026-05-03 21:07 22.43032 90.38343 36809 ft 515 kts 97°
2026-05-03 21:07 22.41970 90.47293 36807 ft 515 kts 97°
2026-05-03 21:08 22.41064 90.54912 36808 ft 516 kts 97°
2026-05-03 21:08 22.40298 90.61335 36807 ft 515 kts 97°
2026-05-03 21:09 22.39381 90.68985 36809 ft 515 kts 97°
2026-05-03 21:09 22.38463 90.76602 36807 ft 515 kts 97°
2026-05-03 21:10 22.37379 90.85564 36817 ft 514 kts 97°
2026-05-03 21:10 22.36607 90.91914 36816 ft 515 kts 97°
2026-05-03 21:11 22.35671 90.99586 36815 ft 515 kts 97°
2026-05-03 21:11 22.34736 91.07227 36816 ft 516 kts 97°
2026-05-03 21:12 22.33791 91.14921 36818 ft 516 kts 97°
2026-05-03 21:12 22.32848 91.22569 36822 ft 517 kts 97°
2026-05-03 21:13 22.31900 91.30220 36819 ft 516 kts 97°
2026-05-03 21:13 22.30944 91.37890 36818 ft 517 kts 97°
2026-05-03 21:14 22.30050 91.45584 36823 ft 517 kts 96°
2026-05-03 21:14 22.29183 91.53291 36821 ft 517 kts 96°
2026-05-03 21:15 22.28309 91.60939 36820 ft 517 kts 96°
2026-05-03 21:15 22.27424 91.68609 36823 ft 516 kts 97°
2026-05-03 21:16 22.26605 91.76270 36829 ft 517 kts 94°
2026-05-03 21:16 22.26411 91.84016 36831 ft 517 kts 87°
2026-05-03 21:17 22.27004 91.91734 36837 ft 517 kts 81°
2026-05-03 21:17 22.28075 91.99385 36839 ft 517 kts 79°
2026-05-03 21:18 22.29166 92.07046 36849 ft 518 kts 79°
2026-05-03 21:18 22.30409 92.15964 36859 ft 518 kts 80°
2026-05-03 21:19 22.31470 92.23678 36861 ft 518 kts 80°
2026-05-03 21:19 22.32349 92.30064 36865 ft 517 kts 80°
2026-05-03 21:20 22.33402 92.37727 36867 ft 517 kts 80°
2026-05-03 21:20 22.34447 92.45378 36876 ft 517 kts 80°
2026-05-03 21:21 22.35485 92.53023 36878 ft 517 kts 80°
2026-05-03 21:21 22.36526 92.60728 36893 ft 517 kts 80°
2026-05-03 21:22 22.37561 92.68417 36895 ft 518 kts 80°
2026-05-03 21:22 22.38589 92.76087 36904 ft 519 kts 80°
2026-05-03 21:23 22.39636 92.83793 36927 ft 518 kts 80°
2026-05-03 21:23 22.40676 92.91492 36967 ft 518 kts 80°
2026-05-03 21:24 22.41881 93.00465 37011 ft 518 kts 80°
2026-05-03 21:24 22.42733 93.06840 37033 ft 517 kts 80°
2026-05-03 21:25 22.43757 93.14546 37035 ft 517 kts 80°
2026-05-03 21:25 22.44769 93.22187 37031 ft 517 kts 80°
2026-05-03 21:26 22.45782 93.29859 37038 ft 517 kts 80°
2026-05-03 21:26 22.46963 93.38840 37093 ft 517 kts 80°
2026-05-03 21:27 22.47806 93.45270 37145 ft 517 kts 80°
2026-05-03 21:27 22.48970 93.54197 37196 ft 516 kts 80°
2026-05-03 21:28 22.49798 93.60563 37192 ft 516 kts 80°
2026-05-03 21:28 22.50798 93.68281 37145 ft 516 kts 81°
2026-05-03 21:29 22.51789 93.75957 37092 ft 516 kts 81°
2026-05-03 21:29 22.52770 93.83588 37042 ft 516 kts 81°
2026-05-03 21:30 22.53757 93.91297 37006 ft 516 kts 81°
2026-05-03 21:30 22.54737 93.98974 36965 ft 516 kts 81°
2026-05-03 21:31 22.55709 94.06625 36952 ft 516 kts 81°
2026-05-03 21:31 22.56678 94.14278 36957 ft 516 kts 81°
2026-05-03 21:32 22.57649 94.21980 36962 ft 517 kts 81°
2026-05-03 21:32 22.58614 94.29670 36970 ft 517 kts 81°
2026-05-03 21:33 22.59743 94.38697 36952 ft 517 kts 81°
2026-05-03 21:33 22.60544 94.45126 36932 ft 518 kts 81°
2026-05-03 21:34 22.61506 94.52869 36920 ft 518 kts 81°
2026-05-03 21:34 22.62461 94.60586 36906 ft 518 kts 81°
2026-05-03 21:35 22.63410 94.68296 36903 ft 518 kts 81°
2026-05-03 21:35 22.64356 94.76017 36898 ft 518 kts 81°
2026-05-03 21:36 22.65302 94.83769 36895 ft 519 kts 81°
2026-05-03 21:36 22.66404 94.92827 36892 ft 519 kts 81°
2026-05-03 21:37 22.67339 95.00549 36891 ft 519 kts 81°
2026-05-03 21:37 22.68277 95.08319 36888 ft 520 kts 81°
2026-05-03 21:38 22.69210 95.16096 36884 ft 520 kts 81°
2026-05-03 21:38 22.69986 95.22588 36884 ft 520 kts 81°
2026-05-03 21:39 22.70907 95.30321 36880 ft 520 kts 81°
2026-05-03 21:39 22.71831 95.38103 36878 ft 520 kts 81°
2026-05-03 21:40 22.72902 95.47170 36879 ft 519 kts 81°
2026-05-03 21:40 22.73660 95.53610 36877 ft 520 kts 81°
2026-05-03 21:41 22.74571 95.61394 36880 ft 520 kts 81°
2026-05-03 21:41 22.75476 95.69144 36880 ft 520 kts 81°
2026-05-03 21:42 22.76379 95.76923 36883 ft 520 kts 81°
2026-05-03 21:42 22.77278 95.84699 36884 ft 520 kts 81°
2026-05-03 21:43 22.78174 95.92477 36887 ft 520 kts 81°
2026-05-03 21:43 22.79068 96.00274 36891 ft 520 kts 81°
2026-05-03 21:44 22.80108 96.09387 36904 ft 520 kts 81°
2026-05-03 21:44 22.80839 96.15816 36936 ft 520 kts 81°
2026-05-03 21:45 22.81723 96.23643 36967 ft 520 kts 81°
2026-05-03 21:45 22.82743 96.32687 36990 ft 520 kts 81°
2026-05-03 21:46 22.83462 96.39098 37008 ft 520 kts 81°
2026-05-03 21:46 22.84326 96.46843 37032 ft 520 kts 81°
2026-05-03 21:47 22.85190 96.54610 37049 ft 520 kts 81°
2026-05-03 21:47 22.86050 96.62393 37050 ft 520 kts 81°
2026-05-03 21:48 22.86912 96.70213 37051 ft 520 kts 81°
2026-05-03 21:48 22.87761 96.77958 37042 ft 521 kts 81°
2026-05-03 21:49 22.88752 96.87035 37035 ft 521 kts 81°
2026-05-03 21:49 22.89456 96.93514 37040 ft 521 kts 81°
2026-05-03 21:50 22.90439 97.02616 37044 ft 520 kts 81°
2026-05-03 21:50 22.91135 97.09084 37057 ft 519 kts 81°
2026-05-03 21:51 22.92103 97.18122 37076 ft 519 kts 81°
2026-05-03 21:51 22.92791 97.24571 37096 ft 520 kts 81°
2026-05-03 21:52 22.93618 97.32378 37095 ft 520 kts 81°
2026-05-03 21:52 22.94438 97.40128 37071 ft 520 kts 82°
2026-05-03 21:53 22.95390 97.49205 37055 ft 520 kts 82°
2026-05-03 21:53 22.96064 97.55681 37047 ft 520 kts 82°
2026-05-03 21:54 22.97008 97.64771 37049 ft 520 kts 82°
2026-05-03 21:54 22.97810 97.71217 37051 ft 519 kts 78°
2026-05-03 21:55 22.99437 97.78825 37052 ft 517 kts 71°
2026-05-03 21:55 23.02177 97.87382 37049 ft 516 kts 67°
2026-05-03 21:56 23.04278 97.93448 37043 ft 516 kts 67°
2026-05-03 21:56 23.07199 98.01930 37050 ft 516 kts 67°
2026-05-03 21:57 23.09701 98.09250 37044 ft 516 kts 67°
2026-05-03 21:57 23.11779 98.15344 37066 ft 517 kts 67°
2026-05-03 21:58 23.14259 98.22635 37098 ft 517 kts 67°
2026-05-03 21:58 23.16750 98.29970 37111 ft 517 kts 67°
2026-05-03 21:59 23.19218 98.37256 37107 ft 517 kts 67°
2026-05-03 21:59 23.21694 98.44570 37092 ft 517 kts 67°
2026-05-03 22:00 23.24180 98.51930 37080 ft 518 kts 67°
2026-05-03 22:00 23.26642 98.59235 37096 ft 518 kts 67°
2026-05-03 22:01 23.29126 98.66611 37108 ft 518 kts 68°
2026-05-03 22:01 23.31590 98.73946 37122 ft 518 kts 68°
2026-05-03 22:02 23.34461 98.82523 37119 ft 518 kts 68°
2026-05-03 22:02 23.36933 98.89915 37119 ft 519 kts 68°
2026-05-03 22:03 23.38937 98.96066 37104 ft 519 kts 69°
2026-05-03 22:03 23.41250 99.03491 37114 ft 519 kts 69°
2026-05-03 22:04 23.43943 99.12157 37162 ft 520 kts 69°
2026-05-03 22:04 23.45880 99.18380 37195 ft 520 kts 69°
2026-05-03 22:05 23.48193 99.25818 37246 ft 520 kts 69°
2026-05-03 22:05 23.50882 99.34485 37238 ft 521 kts 68°
2026-05-03 22:06 23.53589 99.41809 37211 ft 519 kts 62°
2026-05-03 22:06 23.56338 99.47562 37188 ft 517 kts 57°
2026-05-03 22:07 23.59899 99.54349 37180 ft 517 kts 57°
2026-05-03 22:07 23.64077 99.62310 37193 ft 518 kts 57°
2026-05-03 22:08 23.67042 99.67986 37213 ft 518 kts 57°
2026-05-03 22:08 23.70601 99.74823 37229 ft 518 kts 57°
2026-05-03 22:09 23.74143 99.81642 37240 ft 519 kts 58°
2026-05-03 22:10 23.79459 99.91894 37238 ft 519 kts 58°
2026-05-03 22:10 23.83602 99.99902 37234 ft 520 kts 58°
2026-05-03 22:11 23.86578 100.05660 37240 ft 520 kts 58°
2026-05-03 22:11 23.90130 100.12543 37249 ft 520 kts 58°
2026-05-03 22:12 23.93662 100.19396 37255 ft 520 kts 58°
2026-05-03 22:12 23.97224 100.26318 37297 ft 521 kts 58°
2026-05-03 22:13 24.00760 100.33202 37289 ft 522 kts 58°
2026-05-03 22:13 24.04308 100.40121 37244 ft 522 kts 57°
2026-05-03 22:14 24.07844 100.47027 37220 ft 523 kts 57°
2026-05-03 22:14 24.11401 100.53987 37207 ft 523 kts 57°
2026-05-03 22:15 24.15513 100.62100 37224 ft 523 kts 58°
2026-05-03 22:15 24.18439 100.67931 37217 ft 523 kts 58°
2026-05-03 22:16 24.22516 100.76083 37234 ft 524 kts 58°
2026-05-03 22:16 24.25461 100.81970 37236 ft 525 kts 58°
2026-05-03 22:17 24.29540 100.90140 37234 ft 524 kts 58°
2026-05-03 22:17 24.33033 100.97150 37237 ft 525 kts 58°
2026-05-03 22:18 24.35951 101.03014 37241 ft 527 kts 58°
2026-05-03 22:18 24.39467 101.10083 37237 ft 527 kts 58°
2026-05-03 22:19 24.42971 101.17145 37247 ft 527 kts 58°
2026-05-03 22:19 24.46484 101.24232 37247 ft 527 kts 58°
2026-05-03 22:20 24.50564 101.32482 37238 ft 527 kts 58°
2026-05-03 22:20 24.53469 101.38363 37255 ft 527 kts 58°
2026-05-03 22:21 24.56964 101.45454 37240 ft 528 kts 58°
2026-05-03 22:21 24.60448 101.52536 37247 ft 528 kts 58°
2026-05-03 22:22 24.63952 101.59680 37244 ft 527 kts 58°
2026-05-03 22:22 24.67393 101.66778 37249 ft 527 kts 59°
2026-05-03 22:23 24.70837 101.73911 37245 ft 527 kts 59°
2026-05-03 22:23 24.74290 101.81073 37235 ft 528 kts 59°
2026-05-03 22:24 24.77719 101.88199 37241 ft 528 kts 59°
2026-05-03 22:24 24.81160 101.95358 37240 ft 528 kts 59°
2026-05-03 22:25 24.84589 102.02505 37239 ft 529 kts 59°
2026-05-03 22:25 24.88038 102.09699 37243 ft 530 kts 59°
2026-05-03 22:26 24.91472 102.16873 37246 ft 531 kts 59°
2026-05-03 22:26 24.94897 102.24052 37246 ft 531 kts 59°
2026-05-03 22:27 24.98338 102.31276 37247 ft 530 kts 59°
2026-05-03 22:27 25.01755 102.38460 37256 ft 530 kts 59°
2026-05-03 22:28 25.04614 102.45966 37271 ft 535 kts 74°
2026-05-03 22:28 25.05356 102.51363 37274 ft 538 kts 87°
2026-05-03 22:28 25.05236 102.55499 37275 ft 538 kts 97°
2026-05-03 22:29 25.03763 102.62154 37279 ft 534 kts 113°
2026-05-03 22:29 25.00004 102.70712 37289 ft 532 kts 120°
2026-05-03 22:30 24.97208 102.76789 37283 ft 533 kts 119°
2026-05-03 22:30 24.93939 102.84102 37285 ft 533 kts 118°
2026-05-03 22:31 24.90702 102.91443 37292 ft 533 kts 118°
2026-05-03 22:31 24.86974 102.99997 37306 ft 531 kts 118°
2026-05-03 22:32 24.83767 103.07328 37293 ft 531 kts 118°
2026-05-03 22:32 24.81107 103.13391 37275 ft 531 kts 118°
2026-05-03 22:33 24.77880 103.20731 37281 ft 531 kts 118°
2026-05-03 22:33 24.74661 103.28046 37277 ft 532 kts 118°
2026-05-03 22:34 24.71443 103.35350 37262 ft 531 kts 118°
2026-05-03 22:34 24.68200 103.42696 37256 ft 532 kts 118°
2026-05-03 22:35 24.64979 103.49979 37261 ft 532 kts 118°
2026-05-03 22:35 24.61723 103.57332 37261 ft 531 kts 118°
2026-05-03 22:36 24.58457 103.64693 37268 ft 531 kts 118°
2026-05-03 22:36 24.55406 103.72005 37262 ft 533 kts 114°
2026-05-03 22:37 24.52687 103.81111 37271 ft 536 kts 106°
2026-05-03 22:37 24.51263 103.87763 37282 ft 537 kts 104°
2026-05-03 22:38 24.49608 103.95700 37274 ft 536 kts 104°
2026-05-03 22:38 24.47921 104.03680 37271 ft 537 kts 105°
2026-05-03 22:39 24.46226 104.11610 37282 ft 537 kts 105°
2026-05-03 22:39 24.44511 104.19589 37268 ft 538 kts 105°
2026-05-03 22:40 24.42795 104.27557 37272 ft 537 kts 105°
2026-05-03 22:40 24.40783 104.36874 37265 ft 538 kts 105°
2026-05-03 22:41 24.39348 104.43497 37262 ft 537 kts 105°
2026-05-03 22:41 24.37617 104.51473 37259 ft 537 kts 105°
2026-05-03 22:42 24.35889 104.59415 37252 ft 537 kts 105°
2026-05-03 22:42 24.33863 104.68697 37233 ft 536 kts 105°
2026-05-03 22:43 24.32418 104.75298 37245 ft 536 kts 105°
2026-05-03 22:43 24.30380 104.84581 37238 ft 536 kts 105°
2026-05-03 22:44 24.28633 104.92517 37230 ft 536 kts 105°
2026-05-03 22:44 24.26881 105.00446 37224 ft 536 kts 105°
2026-05-03 22:45 24.25128 105.08373 37222 ft 535 kts 105°
2026-05-03 22:45 24.23668 105.14949 37224 ft 533 kts 105°
2026-05-03 22:46 24.21912 105.22823 37213 ft 533 kts 106°
2026-05-03 22:46 24.20038 105.30640 37214 ft 533 kts 107°
2026-05-03 22:47 24.18131 105.38433 37204 ft 533 kts 107°
2026-05-03 22:47 24.16216 105.46287 37194 ft 533 kts 107°
2026-05-03 22:48 24.14301 105.54147 37206 ft 533 kts 107°
2026-05-03 22:48 24.12070 105.63293 37182 ft 533 kts 107°
2026-05-03 22:49 24.10493 105.69790 37180 ft 533 kts 106°
2026-05-03 22:49 24.08871 105.77719 37178 ft 534 kts 104°
2026-05-03 22:50 24.07316 105.85643 37173 ft 534 kts 104°
2026-05-03 22:50 24.05754 105.93557 37152 ft 533 kts 104°
2026-05-03 22:51 24.04183 106.01443 37144 ft 533 kts 104°
2026-05-03 22:51 24.02605 106.09346 37141 ft 533 kts 104°
2026-05-03 22:52 24.00760 106.18552 37137 ft 533 kts 104°
2026-05-03 22:52 23.99439 106.25127 37137 ft 532 kts 104°
2026-05-03 22:53 23.97844 106.33037 37132 ft 533 kts 104°
2026-05-03 22:53 23.96257 106.40887 37134 ft 533 kts 104°
2026-05-03 22:54 23.94652 106.48801 37134 ft 533 kts 104°
2026-05-03 22:54 23.93070 106.56677 37131 ft 533 kts 103°
2026-05-03 22:55 23.92011 106.64714 37131 ft 536 kts 96°
2026-05-03 22:55 23.91477 106.72778 37126 ft 536 kts 95°
2026-05-03 22:56 23.90964 106.80928 37128 ft 535 kts 96°
2026-05-03 22:56 23.90436 106.88977 37126 ft 536 kts 96°
2026-05-03 22:57 23.89800 106.98435 37124 ft 537 kts 96°
2026-05-03 22:57 23.89338 107.05225 37121 ft 537 kts 96°
2026-05-03 22:58 23.88783 107.13330 37118 ft 537 kts 96°
2026-05-03 22:58 23.88219 107.21490 37119 ft 537 kts 96°
2026-05-03 22:59 23.87671 107.29372 37117 ft 537 kts 96°
2026-05-03 22:59 23.87102 107.37483 37115 ft 537 kts 96°
2026-05-03 23:00 23.86529 107.45570 37109 ft 537 kts 96°
2026-05-03 23:00 23.85950 107.53715 37107 ft 537 kts 96°
2026-05-03 23:01 23.85270 107.63176 37106 ft 537 kts 96°
2026-05-03 23:01 23.84687 107.71242 37105 ft 537 kts 96°
2026-05-03 23:02 23.84188 107.78051 37105 ft 537 kts 96°
2026-05-03 23:02 23.83520 107.87458 37099 ft 537 kts 95°
2026-05-03 23:03 23.83182 107.94257 37094 ft 537 kts 95°
2026-05-03 23:03 23.82801 108.02389 37090 ft 537 kts 95°
2026-05-03 23:04 23.82392 108.10504 37092 ft 537 kts 95°
2026-05-03 23:04 23.81967 108.18597 37088 ft 537 kts 95°
2026-05-03 23:05 23.81516 108.26757 37094 ft 538 kts 95°
2026-05-03 23:05 23.80983 108.36227 37088 ft 538 kts 95°
2026-05-03 23:06 23.80522 108.44331 37090 ft 538 kts 95°
2026-05-03 23:06 23.80133 108.51128 37090 ft 538 kts 95°
2026-05-03 23:07 23.79664 108.59255 37088 ft 538 kts 96°
2026-05-03 23:07 23.79191 108.67376 37085 ft 538 kts 96°
2026-05-03 23:08 23.78711 108.75554 37088 ft 538 kts 96°
2026-05-03 23:08 23.78227 108.83669 37088 ft 538 kts 96°
2026-05-03 23:09 23.77741 108.91788 37082 ft 539 kts 96°
2026-05-03 23:09 23.77247 108.99949 37079 ft 540 kts 96°
2026-05-03 23:10 23.76747 109.08115 37072 ft 540 kts 96°
2026-05-03 23:10 23.75976 109.16197 37067 ft 537 kts 102°
2026-05-03 23:11 23.74495 109.24140 37069 ft 535 kts 106°
2026-05-03 23:11 23.72872 109.32021 37072 ft 535 kts 106°
2026-05-03 23:12 23.71255 109.39936 37068 ft 534 kts 106°
2026-05-03 23:12 23.69387 109.49151 37077 ft 534 kts 106°
2026-05-03 23:13 23.68051 109.55723 37070 ft 534 kts 106°
2026-05-03 23:13 23.66176 109.64925 37067 ft 533 kts 106°
2026-05-03 23:14 23.64829 109.71479 37063 ft 533 kts 107°
2026-05-03 23:14 23.63195 109.79381 37070 ft 534 kts 107°
2026-05-03 23:15 23.61571 109.87216 37081 ft 534 kts 107°
2026-05-03 23:15 23.59932 109.95113 37082 ft 534 kts 107°
2026-05-03 23:16 23.58294 110.02975 37078 ft 534 kts 107°
2026-05-03 23:16 23.56644 110.10872 37068 ft 534 kts 107°
2026-05-03 23:17 23.55008 110.18687 37069 ft 534 kts 107°
2026-05-03 23:17 23.53353 110.26569 37064 ft 534 kts 107°
2026-05-03 23:18 23.51691 110.34461 37057 ft 534 kts 107°
2026-05-03 23:18 23.50058 110.42367 37062 ft 536 kts 105°
2026-05-03 23:19 23.48469 110.50238 37053 ft 536 kts 105°
2026-05-03 23:19 23.46854 110.58177 37064 ft 536 kts 106°
2026-05-03 23:20 23.45238 110.66086 37067 ft 536 kts 106°
2026-05-03 23:20 23.43626 110.73932 37064 ft 536 kts 106°
2026-05-03 23:21 23.41962 110.81842 37069 ft 536 kts 106°
2026-05-03 23:21 23.40287 110.89761 37070 ft 536 kts 106°
2026-05-03 23:22 23.37784 111.01555 37067 ft 537 kts 106°
2026-05-03 23:22 23.36097 111.09491 37072 ft 537 kts 106°
2026-05-03 23:23 23.34427 111.17371 37069 ft 537 kts 105°
2026-05-03 23:23 23.32802 111.25349 37066 ft 537 kts 105°
2026-05-03 23:24 23.31190 111.33270 37061 ft 537 kts 105°
2026-05-03 23:24 23.29569 111.41178 37059 ft 537 kts 105°
2026-05-03 23:25 23.27932 111.49117 37056 ft 537 kts 105°
2026-05-03 23:25 23.26293 111.56994 37055 ft 537 kts 105°
2026-05-03 23:26 23.24338 111.66225 37051 ft 537 kts 106°
2026-05-03 23:26 23.22949 111.72772 37054 ft 536 kts 106°
2026-05-03 23:27 23.21264 111.80683 37057 ft 536 kts 106°
2026-05-03 23:27 23.19610 111.88554 37059 ft 536 kts 105°
2026-05-03 23:28 23.17974 111.96458 37074 ft 535 kts 105°
2026-05-03 23:28 23.16335 112.04334 37072 ft 536 kts 105°
2026-05-03 23:29 23.14683 112.12247 37065 ft 536 kts 105°
2026-05-03 23:29 23.13053 112.20018 37063 ft 536 kts 105°
2026-05-03 23:30 23.11401 112.27884 37054 ft 536 kts 105°
2026-05-03 23:30 23.09464 112.37064 37052 ft 535 kts 105°
2026-05-03 23:31 23.07824 112.44880 37047 ft 536 kts 104°
2026-05-03 23:31 23.06828 112.51543 37041 ft 538 kts 98°
2026-05-03 23:32 23.06230 112.59629 37039 ft 538 kts 95°
2026-05-03 23:32 23.05722 112.67695 37032 ft 537 kts 96°
2026-05-03 23:33 23.05189 112.75744 37034 ft 537 kts 96°
2026-05-03 23:33 23.04547 112.85157 37029 ft 537 kts 96°
2026-05-03 23:34 23.04078 112.91908 37028 ft 537 kts 96°
2026-05-03 23:34 23.03423 113.01299 37026 ft 537 kts 96°
2026-05-03 23:35 23.02922 113.08035 37022 ft 536 kts 99°
2026-05-03 23:35 23.01175 113.15800 37022 ft 529 kts 115°
2026-05-03 23:36 22.97743 113.22796 37071 ft 524 kts 130°
2026-05-03 23:36 22.95476 113.25873 37282 ft 519 kts 137°
2026-05-03 23:36 22.92972 113.28601 37537 ft 516 kts 142°
2026-05-03 23:37 22.90324 113.31286 37819 ft 515 kts 142°
2026-05-03 23:37 22.87703 113.33913 38109 ft 514 kts 142°
2026-05-03 23:37 22.85080 113.36552 38403 ft 514 kts 142°
2026-05-03 23:37 22.82457 113.39204 38679 ft 513 kts 142°
2026-05-03 23:38 22.79848 113.41858 38948 ft 513 kts 142°
2026-05-03 23:38 22.77267 113.44489 39015 ft 514 kts 142°
2026-05-03 23:38 22.72065 113.49799 39025 ft 514 kts 141°
2026-05-03 23:39 22.66837 113.55136 39024 ft 513 kts 141°
2026-05-03 23:39 22.60786 113.61306 39018 ft 514 kts 141°
2026-05-03 23:40 22.56420 113.65752 39017 ft 514 kts 141°
2026-05-03 23:40 22.51201 113.71063 39015 ft 513 kts 141°
2026-05-03 23:41 22.46022 113.76327 39017 ft 512 kts 141°
2026-05-03 23:41 22.40806 113.81624 39017 ft 512 kts 141°
2026-05-03 23:42 22.35630 113.86956 39015 ft 513 kts 139°
2026-05-03 23:42 22.30755 113.92618 39012 ft 515 kts 136°
2026-05-03 23:43 22.25901 113.98355 39016 ft 516 kts 136°
2026-05-03 23:43 22.21061 114.04066 39009 ft 516 kts 136°
2026-05-03 23:44 22.16262 114.09897 39013 ft 517 kts 135°
2026-05-03 23:44 22.11519 114.15694 39013 ft 517 kts 135°
2026-05-03 23:45 22.06760 114.21495 39007 ft 517 kts 135°
2026-05-03 23:45 22.01177 114.28282 39000 ft 516 kts 135°
2026-05-03 23:46 21.97217 114.33086 38997 ft 516 kts 135°
2026-05-03 23:46 21.92468 114.38841 38995 ft 515 kts 135°
2026-05-03 23:47 21.87705 114.44607 38997 ft 516 kts 135°
2026-05-03 23:47 21.82916 114.50401 38997 ft 516 kts 135°
2026-05-03 23:48 21.78169 114.56137 38998 ft 516 kts 135°
2026-05-03 23:48 21.72591 114.62870 38991 ft 515 kts 135°
2026-05-03 23:49 21.68615 114.67664 38989 ft 514 kts 135°
2026-05-03 23:49 21.63847 114.73405 38990 ft 514 kts 135°
2026-05-03 23:50 21.59082 114.79137 38990 ft 514 kts 135°
2026-05-03 23:50 21.54346 114.84829 38987 ft 514 kts 135°
2026-05-03 23:51 21.49584 114.90546 38987 ft 514 kts 135°
2026-05-03 23:51 21.44797 114.96288 38987 ft 514 kts 135°
2026-05-03 23:52 21.40052 115.01973 38987 ft 513 kts 135°
2026-05-03 23:52 21.35263 115.07703 38986 ft 514 kts 135°
2026-05-03 23:53 21.30506 115.13390 38984 ft 514 kts 135°
2026-05-03 23:53 21.25737 115.19083 38985 ft 514 kts 135°
2026-05-03 23:54 21.20969 115.24771 38983 ft 514 kts 135°
2026-05-03 23:54 21.16178 115.30482 38981 ft 513 kts 134°
2026-05-03 23:55 21.11400 115.36169 38981 ft 513 kts 135°
2026-05-03 23:55 21.06647 115.41823 38979 ft 512 kts 134°
2026-05-03 23:56 21.01858 115.47510 38979 ft 511 kts 134°
2026-05-03 23:56 20.97098 115.53160 38978 ft 512 kts 134°
2026-05-03 23:57 20.92333 115.58810 38976 ft 512 kts 134°
2026-05-03 23:57 20.87557 115.64467 38970 ft 512 kts 134°
2026-05-03 23:58 20.82792 115.70107 38962 ft 513 kts 135°
2026-05-03 23:58 20.78031 115.75732 38962 ft 513 kts 135°
2026-05-03 23:59 20.73227 115.81404 38958 ft 513 kts 135°
2026-05-03 23:59 20.68442 115.87049 38959 ft 513 kts 135°
2026-05-04 00:00 20.63654 115.92690 38959 ft 512 kts 135°
2026-05-04 00:00 20.58083 115.99246 38955 ft 512 kts 135°
2026-05-04 00:01 20.54076 116.03957 38953 ft 512 kts 135°
2026-05-04 00:01 20.49298 116.09571 38966 ft 511 kts 135°
2026-05-04 00:02 20.44531 116.15166 38975 ft 510 kts 135°
2026-05-04 00:02 20.39753 116.20769 38975 ft 511 kts 135°
2026-05-04 00:03 20.34979 116.26360 38972 ft 511 kts 135°
2026-05-04 00:03 20.30217 116.31932 38976 ft 511 kts 135°
2026-05-04 00:04 20.25434 116.37524 38977 ft 511 kts 135°
2026-05-04 00:04 20.19856 116.44037 38977 ft 510 kts 135°
2026-05-04 00:05 20.15863 116.48695 38979 ft 510 kts 135°
2026-05-04 00:05 20.11107 116.54238 38979 ft 510 kts 135°
2026-05-04 00:06 20.06320 116.59815 38982 ft 510 kts 135°
2026-05-04 00:06 20.01526 116.65391 38970 ft 509 kts 136°
2026-05-04 00:07 19.96769 116.70918 38963 ft 509 kts 136°
2026-05-04 00:07 19.91988 116.76461 38956 ft 508 kts 135°
2026-05-04 00:08 19.87228 116.81980 38957 ft 507 kts 135°
2026-05-04 00:08 19.82460 116.87505 38955 ft 507 kts 135°
2026-05-04 00:09 19.77690 116.93027 38953 ft 507 kts 135°
2026-05-04 00:09 19.72927 116.98534 38955 ft 507 kts 135°
2026-05-04 00:10 19.68158 117.04041 38953 ft 508 kts 135°
2026-05-04 00:10 19.63382 117.09556 38957 ft 507 kts 135°
2026-05-04 00:11 19.58618 117.15050 38962 ft 507 kts 135°
2026-05-04 00:11 19.53053 117.21460 38957 ft 506 kts 135°
2026-05-04 00:12 19.49080 117.26033 38959 ft 506 kts 135°
2026-05-04 00:12 19.44310 117.31516 38957 ft 505 kts 135°
2026-05-04 00:13 19.38735 117.37919 38960 ft 505 kts 135°
2026-05-04 00:13 19.34781 117.42455 38956 ft 505 kts 135°
2026-05-04 00:14 19.30004 117.47933 38956 ft 504 kts 135°
2026-05-04 00:14 19.25231 117.53402 38958 ft 504 kts 135°
2026-05-04 00:15 19.20460 117.58863 38956 ft 503 kts 135°
2026-05-04 00:15 19.15720 117.64286 38958 ft 503 kts 135°
2026-05-04 00:16 19.10961 117.69722 38955 ft 502 kts 135°
2026-05-04 00:16 19.06235 117.75118 38958 ft 502 kts 135°
2026-05-04 00:17 19.01495 117.80521 38958 ft 502 kts 135°
2026-05-04 00:17 18.95971 117.86809 38956 ft 501 kts 135°
2026-05-04 00:18 18.92026 117.91298 38953 ft 501 kts 135°
2026-05-04 00:18 18.87256 117.96721 38954 ft 500 kts 135°
2026-05-04 00:19 18.82549 118.02071 38956 ft 500 kts 135°
2026-05-04 00:19 18.77805 118.07456 38962 ft 500 kts 135°
2026-05-04 00:20 18.73075 118.12823 38958 ft 499 kts 135°
2026-05-04 00:20 18.68328 118.18201 38960 ft 500 kts 135°
2026-05-04 00:21 18.63579 118.23578 38961 ft 501 kts 135°
2026-05-04 00:21 18.58830 118.28947 38958 ft 501 kts 134°
2026-05-04 00:22 18.54081 118.34316 38957 ft 501 kts 134°
2026-05-04 00:22 18.49304 118.39712 38959 ft 501 kts 135°
2026-05-04 00:23 18.44553 118.45072 38959 ft 501 kts 134°
2026-05-04 00:23 18.39821 118.50407 38960 ft 501 kts 134°
2026-05-04 00:24 18.35048 118.55782 38958 ft 500 kts 134°
2026-05-04 00:24 18.30298 118.61126 38959 ft 500 kts 134°
2026-05-04 00:25 18.25556 118.66457 38957 ft 499 kts 134°
2026-05-04 00:25 18.20807 118.71795 38958 ft 499 kts 134°
2026-05-04 00:26 18.16082 118.77100 38957 ft 499 kts 134°
2026-05-04 00:26 18.11332 118.82427 38958 ft 499 kts 134°
2026-05-04 00:27 18.06577 118.87755 38958 ft 499 kts 134°
2026-05-04 00:27 18.01589 118.92824 38946 ft 498 kts 140°
2026-05-04 00:28 17.96174 118.97272 38942 ft 495 kts 146°
2026-05-04 00:28 17.90328 119.01102 38939 ft 493 kts 152°
2026-05-04 00:29 17.84331 119.04573 38937 ft 492 kts 152°
2026-05-04 00:29 17.78304 119.08054 38936 ft 492 kts 152°
2026-05-04 00:30 17.72312 119.11518 38934 ft 492 kts 152°
2026-05-04 00:30 17.66348 119.14969 38938 ft 492 kts 153°
2026-05-04 00:31 17.60350 119.18435 38938 ft 491 kts 152°
2026-05-04 00:31 17.54333 119.21910 38939 ft 491 kts 152°
2026-05-04 00:32 17.48370 119.25352 38936 ft 491 kts 153°
2026-05-04 00:32 17.42373 119.28810 38936 ft 490 kts 152°
2026-05-04 00:33 17.33394 119.33984 38937 ft 490 kts 153°
2026-05-04 00:34 17.27426 119.37421 38931 ft 490 kts 153°
2026-05-04 00:34 17.20459 119.41429 38932 ft 490 kts 153°
2026-05-04 00:35 17.15461 119.44302 38929 ft 489 kts 153°
2026-05-04 00:35 17.09477 119.47739 38933 ft 489 kts 153°
2026-05-04 00:36 17.03504 119.51168 38928 ft 488 kts 153°
2026-05-04 00:36 16.97562 119.54575 38929 ft 488 kts 153°
2026-05-04 00:37 16.91605 119.57989 38934 ft 488 kts 153°
2026-05-04 00:37 16.85606 119.61426 38936 ft 488 kts 153°
2026-05-04 00:38 16.79664 119.64827 38935 ft 488 kts 153°
2026-05-04 00:38 16.73701 119.68237 38935 ft 488 kts 153°
2026-05-04 00:39 16.67743 119.71642 38936 ft 487 kts 153°
2026-05-04 00:39 16.61772 119.75052 38937 ft 487 kts 153°
2026-05-04 00:40 16.55839 119.78438 38937 ft 487 kts 153°
2026-05-04 00:40 16.49880 119.81836 38934 ft 487 kts 153°
2026-05-04 00:41 16.43953 119.85214 38930 ft 488 kts 153°
2026-05-04 00:41 16.37980 119.88615 38926 ft 487 kts 153°
2026-05-04 00:42 16.32044 119.91993 38925 ft 487 kts 153°
2026-05-04 00:42 16.26093 119.95377 38553 ft 489 kts 153°
2026-05-04 00:42 16.23090 119.97084 37975 ft 489 kts 153°
2026-05-04 00:43 16.20107 119.98779 37385 ft 490 kts 153°
2026-05-04 00:43 16.17118 120.00477 36777 ft 490 kts 153°
2026-05-04 00:43 16.14134 120.02171 36132 ft 490 kts 153°
2026-05-04 00:43 16.11118 120.03883 35479 ft 490 kts 153°
2026-05-04 00:44 16.08120 120.05584 34836 ft 489 kts 153°
2026-05-04 00:44 16.05166 120.07259 34203 ft 489 kts 153°
2026-05-04 00:44 16.02161 120.08964 33553 ft 489 kts 153°
2026-05-04 00:44 15.99152 120.10671 32885 ft 489 kts 153°
2026-05-04 00:45 15.96163 120.12364 32259 ft 489 kts 153°
2026-05-04 00:45 15.93202 120.14039 31621 ft 489 kts 153°
2026-05-04 00:45 15.90195 120.15741 30944 ft 490 kts 153°
2026-05-04 00:45 15.87214 120.17428 30251 ft 491 kts 153°
2026-05-04 00:46 15.84208 120.19128 29540 ft 491 kts 153°
2026-05-04 00:46 15.81198 120.20830 28815 ft 492 kts 153°
2026-05-04 00:46 15.78547 120.22330 28183 ft 492 kts 152°
2026-05-04 00:46 15.75580 120.24008 27708 ft 487 kts 152°
2026-05-04 00:47 15.72603 120.25692 27245 ft 481 kts 152°
2026-05-04 00:47 15.69647 120.27362 26703 ft 478 kts 152°
2026-05-04 00:47 15.66736 120.29007 26231 ft 473 kts 152°
2026-05-04 00:47 15.63971 120.30567 25934 ft 452 kts 152°
2026-05-04 00:48 15.61296 120.32079 25843 ft 422 kts 152°
2026-05-04 00:48 15.58795 120.33491 25776 ft 395 kts 152°
2026-05-04 00:48 15.56446 120.34815 25730 ft 381 kts 152°
2026-05-04 00:48 15.54118 120.36128 25696 ft 380 kts 152°
2026-05-04 00:49 15.51792 120.37438 25603 ft 379 kts 152°
2026-05-04 00:49 15.49472 120.38747 25523 ft 376 kts 152°
2026-05-04 00:49 15.47185 120.40035 25450 ft 373 kts 152°
2026-05-04 00:49 15.44905 120.41318 25384 ft 371 kts 152°
2026-05-04 00:50 15.42594 120.42543 25323 ft 367 kts 155°
2026-05-04 00:50 15.40244 120.43579 25229 ft 365 kts 159°
2026-05-04 00:50 15.37817 120.44443 24836 ft 366 kts 162°
2026-05-04 00:50 15.35380 120.45221 24487 ft 364 kts 163°
2026-05-04 00:51 15.32967 120.45982 24164 ft 362 kts 162°
2026-05-04 00:51 15.30579 120.46736 23849 ft 359 kts 162°
2026-05-04 00:51 15.27388 120.47746 23428 ft 355 kts 162°
2026-05-04 00:51 15.25789 120.48252 23217 ft 353 kts 162°
2026-05-04 00:52 15.23452 120.48993 22913 ft 351 kts 162°
2026-05-04 00:52 15.21111 120.49735 22610 ft 348 kts 162°
2026-05-04 00:52 15.18795 120.50471 22306 ft 345 kts 162°
2026-05-04 00:52 15.16516 120.51195 22018 ft 343 kts 162°
2026-05-04 00:53 15.14241 120.51917 21723 ft 341 kts 162°
2026-05-04 00:53 15.11972 120.52638 21424 ft 338 kts 162°
2026-05-04 00:53 15.09712 120.53354 21126 ft 336 kts 162°
2026-05-04 00:53 15.07472 120.54065 20826 ft 334 kts 162°
2026-05-04 00:54 15.05268 120.54763 20534 ft 332 kts 162°
2026-05-04 00:54 15.03040 120.55469 20238 ft 330 kts 161°
2026-05-04 00:54 15.00855 120.56161 19943 ft 329 kts 161°
2026-05-04 00:54 14.98674 120.56851 19652 ft 327 kts 161°
2026-05-04 00:55 14.96490 120.57543 19358 ft 325 kts 161°
2026-05-04 00:55 14.94324 120.58229 19055 ft 324 kts 161°
2026-05-04 00:55 14.92170 120.58911 18742 ft 323 kts 161°
2026-05-04 00:55 14.90023 120.59589 18449 ft 321 kts 161°
2026-05-04 00:56 14.87884 120.60268 18152 ft 320 kts 161°
2026-05-04 00:56 14.85756 120.60941 17860 ft 318 kts 161°
2026-05-04 00:56 14.83618 120.61616 17570 ft 317 kts 161°
2026-05-04 00:56 14.81508 120.62283 17270 ft 315 kts 161°
2026-05-04 00:57 14.79408 120.62945 16986 ft 313 kts 161°
2026-05-04 00:57 14.77341 120.63599 16701 ft 312 kts 161°
2026-05-04 00:57 14.75273 120.64251 16417 ft 311 kts 161°
2026-05-04 00:57 14.73184 120.64912 16130 ft 309 kts 161°
2026-05-04 00:58 14.71127 120.65562 15842 ft 308 kts 161°
2026-05-04 00:58 14.69083 120.66207 15563 ft 307 kts 161°
2026-05-04 00:58 14.67044 120.66850 15279 ft 306 kts 161°
2026-05-04 00:58 14.64996 120.67497 15079 ft 302 kts 161°
2026-05-04 00:59 14.63027 120.68127 15078 ft 295 kts 159°
2026-05-04 00:59 14.61126 120.68915 15056 ft 291 kts 153°
2026-05-04 00:59 14.59321 120.69891 14777 ft 292 kts 149°
2026-05-04 00:59 14.57534 120.70938 14475 ft 292 kts 148°
2026-05-04 01:00 14.55789 120.71970 14194 ft 292 kts 148°
2026-05-04 01:00 14.54021 120.72978 14113 ft 282 kts 155°
2026-05-04 01:00 14.52125 120.73271 14049 ft 278 kts 190°
2026-05-04 01:00 14.50372 120.72450 13882 ft 284 kts 222°
2026-05-04 01:01 14.49222 120.70817 13611 ft 284 kts 241°
2026-05-04 01:01 14.48296 120.69011 13343 ft 285 kts 242°
2026-05-04 01:01 14.47348 120.67203 13083 ft 285 kts 241°
2026-05-04 01:01 14.46382 120.65415 12828 ft 285 kts 240°
2026-05-04 01:02 14.45408 120.63646 12575 ft 286 kts 240°
2026-05-04 01:02 14.44414 120.61857 12312 ft 286 kts 239°
2026-05-04 01:02 14.43189 120.60297 12108 ft 280 kts 213°
2026-05-04 01:02 14.41387 120.59638 11904 ft 271 kts 178°
2026-05-04 01:03 14.39594 120.60011 11732 ft 262 kts 152°
2026-05-04 01:03 14.38133 120.61107 11497 ft 256 kts 128°
2026-05-04 01:03 14.37252 120.62679 11239 ft 252 kts 104°
2026-05-04 01:03 14.37069 120.64442 10991 ft 248 kts 82°
2026-05-04 01:04 14.37320 120.66175 10778 ft 246 kts 80°
2026-05-04 01:04 14.37594 120.67923 10543 ft 246 kts 80°
2026-05-04 01:04 14.37858 120.69660 10312 ft 245 kts 81°
2026-05-04 01:04 14.38113 120.71397 10114 ft 243 kts 81°
2026-05-04 01:05 14.38375 120.73176 10016 ft 256 kts 80°
2026-05-04 01:05 14.38644 120.75010 9738 ft 264 kts 81°
2026-05-04 01:05 14.38597 120.76922 9159 ft 279 kts 104°
2026-05-04 01:05 14.37634 120.78689 8814 ft 285 kts 132°
2026-05-04 01:06 14.35509 120.80283 8668 ft 279 kts 146°
2026-05-04 01:06 14.34405 120.80959 8593 ft 275 kts 147°
2026-05-04 01:06 14.32747 120.81943 8477 ft 269 kts 147°
2026-05-04 01:06 14.31142 120.82878 8369 ft 263 kts 147°
2026-05-04 01:07 14.29511 120.83714 8237 ft 260 kts 162°
2026-05-04 01:07 14.27696 120.83799 8116 ft 261 kts 192°
2026-05-04 01:07 14.26098 120.82993 7972 ft 261 kts 221°
2026-05-04 01:07 14.24911 120.81569 7776 ft 260 kts 234°
2026-05-04 01:08 14.23900 120.80030 7571 ft 260 kts 237°
2026-05-04 01:08 14.22920 120.78464 7342 ft 259 kts 237°
2026-05-04 01:08 14.21944 120.76890 7135 ft 258 kts 237°
2026-05-04 01:08 14.20984 120.75335 6934 ft 257 kts 237°
2026-05-04 01:09 14.20026 120.73770 6732 ft 256 kts 240°
2026-05-04 01:09 14.19508 120.72030 6482 ft 255 kts 275°
2026-05-04 01:09 14.20071 120.70368 6257 ft 247 kts 314°
2026-05-04 01:09 14.21427 120.69370 6021 ft 238 kts 345°
2026-05-04 01:10 14.23035 120.69138 5792 ft 232 kts 10°
2026-05-04 01:10 14.24549 120.69653 5583 ft 226 kts 36°
2026-05-04 01:10 14.25792 120.70633 5398 ft 224 kts 40°
2026-05-04 01:10 14.27003 120.71632 5222 ft 223 kts 40°
2026-05-04 01:11 14.28227 120.72627 5030 ft 223 kts 40°
2026-05-04 01:11 14.29457 120.73614 4838 ft 222 kts 39°
2026-05-04 01:11 14.30677 120.74583 4645 ft 222 kts 39°
2026-05-04 01:11 14.31908 120.75557 4454 ft 221 kts 39°
2026-05-04 01:12 14.33128 120.76520 4262 ft 221 kts 39°
2026-05-04 01:12 14.34344 120.77478 4074 ft 220 kts 39°
2026-05-04 01:12 14.35566 120.78440 3891 ft 219 kts 39°
2026-05-04 01:12 14.36781 120.79397 3705 ft 219 kts 39°
2026-05-04 01:13 14.38005 120.80360 3520 ft 219 kts 40°
2026-05-04 01:13 14.39178 120.81349 3335 ft 217 kts 47°
2026-05-04 01:13 14.40116 120.82561 3137 ft 216 kts 58°
2026-05-04 01:13 14.40881 120.83885 2979 ft 215 kts 61°
2026-05-04 01:14 14.41607 120.85235 2897 ft 210 kts 62°
2026-05-04 01:14 14.42306 120.86530 2833 ft 202 kts 61°
2026-05-04 01:14 14.43001 120.87798 2615 ft 203 kts 61°
2026-05-04 01:14 14.43683 120.89031 2373 ft 196 kts 61°
2026-05-04 01:15 14.44348 120.90227 2135 ft 187 kts 61°
2026-05-04 01:15 14.44984 120.91371 1908 ft 180 kts 61°
2026-05-04 01:15 14.45600 120.92480 1677 ft 174 kts 62°
2026-05-04 01:15 14.46190 120.93540 1460 ft 169 kts 62°
2026-05-04 01:16 14.46769 120.94583 1250 ft 164 kts 62°
2026-05-04 01:16 14.47333 120.95598 1050 ft 158 kts 62°
2026-05-04 01:16 14.47864 120.96549 851 ft 152 kts 59°
2026-05-04 01:16 14.48579 120.97761 561 ft 146 kts 62°
2026-05-04 01:17 14.48933 120.98367 395 ft 144 kts 62°
2026-05-04 01:17 14.49413 120.99260 266 ft 141 kts 63°
2026-05-04 01:17 14.49877 121.00135 126 ft 141 kts 64°
2026-05-04 01:17 14.50454 121.01216 90 ft 103 kts 60°
2026-05-04 01:18 14.50649 121.01574 90 ft 69 kts 60°
2026-05-04 01:18 14.50814 121.01868 90 ft 34 kts 60°
2026-05-04 01:18 14.50921 121.02061 90 ft 29 kts 62°
2026-05-04 01:18 14.51033 121.02205 90 ft 24 kts 43°
2026-05-04 01:19 14.51138 121.02299 90 ft 9 kts 24°
2026-05-04 01:19 14.51184 121.02259 90 ft 10 kts 269°
2026-05-04 01:19 14.51153 121.02189 90 ft 11 kts 241°
2026-05-04 01:19 14.51111 121.02113 90 ft 12 kts 240°
2026-05-04 01:20 14.51064 121.02031 90 ft 13 kts 239°
2026-05-04 01:20 14.51026 121.01957 90 ft 6 kts 262°
2026-05-04 01:20 14.51047 121.01911 90 ft 8 kts 309°
2026-05-04 01:20 14.51089 121.01865 90 ft 9 kts 314°
2026-05-04 01:21 14.51141 121.01811 90 ft 11 kts 314°
2026-05-04 01:21 14.51200 121.01750 90 ft 12 kts 315°
2026-05-04 01:21 14.51265 121.01682 90 ft 13 kts 315°
2026-05-04 01:21 14.51334 121.01611 90 ft 12 kts 314°
2026-05-04 01:22 14.51386 121.01575 90 ft 6 kts
2026-05-04 01:22 14.51435 121.01590 90 ft 7 kts
2026-05-04 01:22 14.51475 121.01565 90 ft 7 kts 321°
2026-05-04 01:22 14.51518 121.01524 90 ft 9 kts 314°
2026-05-04 01:23 14.51565 121.01475 90 ft 7 kts 314°
2026-05-04 01:23 14.51593 121.01466 90 ft 4 kts 17°
2026-05-04 01:23 14.51628 121.01489 90 ft 6 kts 38°
2026-05-04 01:23 14.51649 121.01508 90 ft 3 kts 41°
2026-05-04 01:24 14.51654 121.01512 90 ft 0 kts 42°